This demonstration page uses our WeatherBlox Daily Observations layout. Learn more.

Left ArrowRight Arrow

44.89941, -97.11507

Hourly Observations for March 16, 2017

Temp ( °F °C ) Dew Point ( °F °C ) Humidity (%) Winds ( mph kmh ) Pressure ( in mb ) Visibility ( mi km ) Precip ( " mm )
12:53 am 00:53 Partly Cloudy 28 -2.2 22 -5.6 78 78 SSE 12 19 30.11 1020 10 16 0.00 0.00
1:53 am 01:53 Cloudy 28 -2.2 22 -5.6 78 78 SSE 15 24 30.09 1019 10 16 0.00 0.00
2:53 am 02:53 Cloudy 28 -2.2 22 -5.6 78 78 SSE 20 31 30.08 1019 10 16 0.00 0.00
3:53 am 03:53 Cloudy 29 -1.7 23 -5 78 78 SSE 20 31 30.05 1018 10 16 0.00 0.00
4:53 am 04:53 Mostly Cloudy 28 -2.2 23 -5 81 81 SSE 20 31 30.02 1017 10 16 0.00 0.00
5:53 am 05:53 Mostly Cloudy 28 -2.2 23 -5 81 81 SSE 14 22 30.01 1016 10 16 0.00 0.00
6:53 am 06:53 Cloudy 29 -1.7 23 -5 78 78 SSE 17 28 30.00 1016 10 16 0.00 0.00
7:53 am 07:53 Sunny 28 -2.2 23 -5 81 81 SSE 17 28 29.98 1015 10 16 0.00 0.00
8:53 am 08:53 Sunny 28 -2.2 23 -5 81 81 SSE 18 30 29.97 1015 10 16 0.00 0.00
9:53 am 09:53 Sunny 30 -1.1 24 -4.4 79 79 SSE 21 33 29.96 1014 10 16 0.00 0.00
10:53 am 10:53 Sunny 31 -0.6 25 -3.9 79 79 SSE 18 30 29.93 1013 10 16 0.00 0.00
11:53 am 11:53 Sunny 32 0 25 -3.9 75 75 SSE 20 31 29.92 1013 10 16 0.00 0.00
12:53 pm 12:53 Sunny 33 0.6 26 -3.3 75 75 SSE 20 31 29.89 1012 10 16 0.00 0.00
1:53 pm 13:53 Sunny 34 1.1 28 -2.2 79 79 SSE 17 28 29.87 1012 10 16 0.00 0.00
2:53 pm 14:53 Sunny 35 1.7 28 -2.2 76 76 SSE 18 30 29.85 1011 10 16 0.00 0.00
3:53 pm 15:53 Sunny 36 2.2 29 -1.7 76 76 SE 17 28 29.82 1010 10 16 0.00 0.00
4:53 pm 16:53 Partly Cloudy 37 2.8 30 -1.1 76 76 SSE 16 26 29.83 1010 10 16 0.00 0.00
5:53 pm 17:53 Mostly Sunny 37 2.8 31 -0.6 79 79 SSE 14 22 29.84 1011 10 16 0.00 0.00
6:53 pm 18:53 Mostly Sunny 37 2.8 32 0 82 82 SSE 12 19 29.85 1011 9 14 0.00 0.00
7:53 pm 19:53 Mostly Cloudy 36 2.2 31 -0.6 82 82 SE 10 17 29.84 1011 10 16 0.00 0.00
8:53 pm 20:53 Mostly Clear 36 2.2 31 -0.6 82 82 SSE 8 13 29.86 1011 10 16 0.00 0.00
9:53 pm 21:53 Clear 34 1.1 31 -0.6 89 89 S 5 7 29.87 1011 9 14 0.00 0.00
10:53 pm 22:53 Clear with Mist and Fog 31 -0.6 29 -1.7 92 92 SSW 5 7 29.87 1012 6 10 0.00 0.00
11:53 pm 23:53 Clear with Mist and Fog 31 -0.6 29 -1.7 92 92 W 8 13 29.88 1012 6 10 0.00 0.00

Powered by AerisWeather